Tracking 18844 objects as of 21-Nov-2017
HD Live streaming from Space Station
objects crossing your sky now

FENGYUN 1C DEB

Track FENGYUN 1C DEB now!
10-day predictions


NORAD ID: 36257
Int'l Code: 1999-025DWJ
Perigee: 772.0 km
Apogee: 807.9 km
Inclination: 99.1 °
Period: 100.5 minutes
Semi major axis: 7160 km
RCS: 0.0135 m2 (small)
Launch date: May 10, 1999
Source: People's Republic of China (PRC)
Launch site: Taiyaun Space Center, China (TSC)

Note: This is SATELLITE DEBRIS
aabbcc
Your satellite tracking list
Your tracking list is empty




NASA's NSSDC Master Catalog

Two Line Element Set (TLE):
1 36257U 99025DWJ 17324.23885891  .00001833  00000-0  68934-3 0  9997
2 36257  99.1080 124.5534 0025115 278.2495  81.5839 14.32674537458369
Source of the keplerian elements: AFSPC